Regional Weather Roundup
Issued by NWS

Home | Current Version | Previous Version | Text Only | Print | Product List | Glossary On
Versions: 1 2 3 4 5 6 7 8 9 10 11 12 13 14 15 16 17 18 19 20 21 22 23 24 25 26 27 28 29 30 31 32 33 34 35 36 37 38 39 40 41 42 43 44 45 46 47 48 49
000
ASUS45 KBOU 200410
RWRCO

WEATHER ROUNDUP FOR COLORADO
NATIONAL WEATHER SERVICE DENVER/BOULDER CO
1000 PM MDT THU APR 19 2018

NOTE: "FAIR" INDICATES FEW OR NO CLOUDS BELOW 12000 FEET WITH NO
SIGNIFICANT WEATHER AND/OR OBSTRUCTIONS TO VISIBILITY.

COZ001>005-013-030-031-200500-
...NORTHWEST COLORADO...

CITY           SKY/WX    TMP DP  RH WIND       PRES   REMARKS
CRAIG          FAIR      55  30  38 SW13      29.84R
HAYDEN         CLOUDY    55  19  24 W3        29.88R
MEEKER         LGT RAIN  54  30  40 SE13G23   29.85F
RANGELY        MOCLDY    57  29  34 SW6       29.78R
RABBIT EARS PA CLOUDY    36  21  55 SE6       30.05S
STEAMBOAT SPGS CLOUDY    54  19  25 SE16      29.90R
WALDEN         MOCLDY    46  18  31 S24G36    30.00R
$$

COZ006>008-011-200500-
...WEST CENTRAL VALLEYS...

CITY           SKY/WX    TMP DP  RH WIND       PRES   REMARKS
GRAND JUNCTION FAIR      65  26  23 SE12      29.68F
MONTROSE       CLOUDY    57  28  33 E17G35    29.80R
EAGLE          CLOUDY    57  23  26 E16       29.88S
RIFLE          FAIR      61  27  27 S15G29    29.79F
DELTA          MOCLDY    65  26  23 SE32G40   29.74F
NUCLA          FAIR      64   5   9 SW23G33   29.74R
$$

COZ017>023-064>068-200500-
...SOUTHWEST COLORADO...

CITY           SKY/WX    TMP DP  RH WIND       PRES   REMARKS
DURANGO        FAIR      57  21  24 SE16G24   29.85S
CORTEZ         FAIR      67  -1   6 S26G35    29.73S
PAGOSA SPRINGS CLOUDY    53  17  24 SE17G25   29.97S
TELLURIDE      CLOUDY    49  19  30 SE16G31   29.94R
WOLF CREEK PAS CLOUDY    32  19  59 SE22G47   30.15S WCI  19
$$

COZ009-010-012-014-032>034-037-058>063-200500-
...CENTRAL COLORADO...

CITY           SKY/WX    TMP DP  RH WIND       PRES   REMARKS
ASPEN          MOCLDY    54  19  25 SE20G29   29.92R
BUENA VISTA    CLOUDY    47  15  28 S3        30.00S
COPPER MTN     NOT AVBL
BERTHOUD PASS  FAIR      27  16  63 SE31G38   30.15F WCI  10
COTTONWOOD PAS CLOUDY    46  14  27 E7        30.07F
GUNNISON       FAIR      48  27  44 W12       29.98S
GRANBY         FAIR      46  17  32 E3        30.02F
KREMMLING      MOCLDY    59  21  23 SE14      29.97S
LEADVILLE      LGT RAIN  39  21  48 S21G38    30.06S
MONARCH PASS   CLOUDY    32  16  51 S14G37    30.26S WCI  22
SALIDA         FAIR      56  14  19 SE20G44   30.05S
SUNLIGHT       MOCLDY    34  21  60 CALM      30.06R
WILKERSON PASS FAIR      32  10  40 S8        30.18F WCI  25
$$

COZ069>075-200500-
...SAN LUIS VALLEY/SANGRE DE CRISTO MOUNTAINS...

CITY           SKY/WX    TMP DP  RH WIND       PRES   REMARKS
ALAMOSA        FAIR      48  21  34 S17       30.02S
DEL NORTE      FAIR      52  20  28 S15G24    30.02S
LA VETA PASS   FAIR      36  19  51 S10G20    30.26S
SAGUACHE       NOT AVBL
$$

COZ035-036-038>040-200500-
...NORTHERN COLORADO FRONT RANGE...

CITY           SKY/WX    TMP DP  RH WIND       PRES   REMARKS
DENVER INTL AP FAIR      55  19  24 SE29G45   29.96R
AURORA         PTCLDY    52  19  26 SE18      29.97R
FRONT RANGE AP FAIR      56  20  24 SE30G43   29.98S
ERIE MUNI ARPT MOCLDY    59  14  17 S10G16    29.99S
BOULDER MUN AP FAIR      50  25  37 CALM      29.95F
CENTENNIAL     FAIR      54  20  26 S17G28    29.97R
BROOMFIELD     MOCLDY    59  16  18 SE20G30   29.96
FORT COLLINS   FAIR      53  21  28 E20       29.97R
LONGMONT       MOCLDY    50  26  39 CALM      29.97S
$$

COZ041-046-047-076>085-087-088-200500-
...PIKES PEAK/PALMER DIVIDE AND SOUTHERN FOOTHILLS...

CITY           SKY/WX    TMP DP  RH WIND       PRES   REMARKS
COLO. SPRINGS  FAIR      51  21  30 E15       30.03R
A. F. ACADEMY  FAIR      51  17  26 SE18G25   30.02R
SCHRIEVER AFB  NOT AVBL
CHEYENNE MTN   FAIR      50  18  27 S13       29.99S
ELLICOTT         N/A    N/A N/A N/A SE20G28   30.03S
FALCON         FAIR      48  17  29 SE18G25   30.08R
FORT CARSON    MOCLDY    55  21  26 SE16      30.00R
LIMON          FAIR      49  20  31 SE24G35   30.06R
MONUMENT HILL  FAIR      46  19  34 SE32G40   30.01F
CANON CITY     FAIR      59  23  25 NE17      29.93S
WALSENBURG     NOT AVBL
TRINIDAD       FAIR      56  24  29 S17G26    30.07R
$$

COZ042>045-048>051-090-091-200500-
...NORTHEAST COLORADO...

CITY           SKY/WX    TMP DP  RH WIND       PRES   REMARKS
GREELEY ARPT   FAIR      51  22  31 E18       29.98R
AKRON          FAIR      47  26  44 SE30G39   30.08S
BURLINGTON     FAIR      47  25  42 SE23G33   30.14S
WRAY           FAIR      48  27  43 SE21G29   30.15S
YUMA           FAIR      45  27  49 SE21G28   30.12R
STERLING       NOT AVBL
HOLYOKE        FAIR      48  27  43 SE18G29   30.16S
FORT MORGAN    FAIR      48  22  35 E21G28    30.06R
$$

COZ086-089-092>099-200500-
...SOUTHEAST COLORADO...

CITY           SKY/WX    TMP DP  RH WIND       PRES   REMARKS
PUEBLO         FAIR      64  26  23 S28G39    29.95R
LA JUNTA       FAIR      57  21  24 SE20      30.04S
LAMAR          FAIR      53  22  29 E16       30.10S
SPRINGFIELD      N/A     52  22  30 S23G31    30.13S
$$




USA.gov is the U.S. government's official web portal to all federal, state and local government web resources and services.